Weather observations for the past three days for
Castroville Municipal Airport
Imperial (Metric)
Date Time (cdt) Wind (mph) Vis. (mi.) Weather Sky Cond. Temperature (ºF) Relative Humidity Wind Chill (°F) Heat Index (°F) Pressure Precipitation (in)
Air Dwpt 6 hour altimeter (in) sea level (mb) 1 hr 3 hr 6 hr
Max. Min.
12 17:55 SE 8 10.00 Light Drizzle SCT050 BKN065 BKN075 79.3 65.8 63% 81 30.09 0.0
12 17:35 SE 9 10.00 Light Drizzle SCT036 SCT048 SCT060 80.6 63.9 57% 82 30.09 0.0
12 17:15 SE 7 10.00 Drizzle SCT050 81.7 64.2 56% 83 30.09 0.0
12 16:55 SE 7 10.00 Thunderstorm Light Drizzle SCT070 SCT085 82.9 62.1 49% 84 30.09 0.0
12 16:35 E 8 10.00 Partly Cloudy SCT070 SCT085 84 62.2 48% 85 30.08 0.0
12 16:15 E 8 10.00 Partly Cloudy SCT038 85.3 61.5 45% 86 30.08 0.0
12 15:55 E 8 10.00 Fair CLR 84.6 62.6 48% 85 30.08 0.0 0.11
12 15:35 E 7 10.00 Thunderstorm in Vicinity SCT034 SCT085 83.8 64 51% 85 30.08 0.0
12 15:15 E 8 10.00 Partly Cloudy SCT085 SCT110 82.4 65.5 57% 84 30.09 0.0
12 14:55 E 8 10.00 Partly Cloudy SCT039 SCT048 SCT110 82.6 65.5 56% 85 30.09 0.0 0.07
12 14:35 S 8 10.00 Thunderstorm Rain in Vicinity SCT029 SCT035 BKN042 80.8 65.3 59% 83 30.08 0.0 0.07
12 14:15 S 6 4.00 Rain SCT026 BKN036 OVC043 79.2 65.8 64% 81 30.09 0.0 0.07
12 13:55 S 15 4.00 Heavy Rain SCT023 BKN045 OVC065 78.1 65.1 65% 80 30.09 0.0 0.04
12 13:35 SW 14 G 18 10.00 Mostly Cloudy SCT043 BKN055 86.9 60.1 41% 87 30.09 0.0
12 13:15 S 8 7.00 Partly Cloudy SCT044 SCT055 SCT075 89.6 57.4 34% 88 30.09 0.0
12 12:55 S 5 10.00 Partly Cloudy SCT042 89.6 57.9 90.1 73.6 34% 88 30.1 0.0
12 12:35 S 9 10.00 Partly Cloudy SCT042 89.1 57.4 34% 88 30.1 0.0
12 12:15 S 6 7.00 Partly Cloudy SCT034 88 57.6 36% 87 30.11 0.0
12 11:55 SE 5 7.00 Partly Cloudy SCT026 SCT032 86.5 60.1 41% 86 30.12 0.0
12 11:35 S 3 7.00 Partly Cloudy SCT026 84.4 61.2 46% 85 30.12 0.0
12 11:15 S 7 10.00 Partly Cloudy SCT026 83.8 61.5 47% 84 30.12 0.0
12 10:55 S 6 7.00 Partly Cloudy SCT021 SCT030 82.6 62.6 51% 84 30.12 0.0
12 10:35 S 7 7.00 Mostly Cloudy BKN019 BKN027 81.7 62.8 53% 83 30.13 0.0
12 10:15 S 5 10.00 Mostly Cloudy SCT017 BKN024 BKN036 80.6 64.9 59% 82 30.13 0.0
12 09:55 S 6 10.00 Mostly Cloudy SCT013 BKN036 79.7 65.5 62% 82 30.13 0.0
12 09:35 SE 3 10.00 Mostly Cloudy BKN013 BKN019 BKN038 79.7 66 63% 82 30.12 0.0
12 09:15 SE 5 10.00 Mostly Cloudy BKN013 BKN019 BKN024 78.6 66.4 66% 81 30.12 0.0
12 08:55 E 6 10.00 Overcast BKN015 OVC024 78.3 66.2 67% 80 30.12 0.0
12 08:35 E 3 10.00 Mostly Cloudy BKN015 BKN033 78.3 66 66% 80 30.1 0.0
12 08:15 Calm 10.00 Partly Cloudy SCT033 77.7 65.7 67% 80 30.09 0.0
12 07:55 Calm 10.00 Overcast OVC033 76.5 66.7 72% 78 30.08 0.0
12 07:35 Calm 10.00 Overcast SCT015 OVC031 74.5 68 80% 30.08 0.0
12 07:15 Calm 10.00 Overcast BKN015 BKN022 OVC027 74.3 68.2 81% 30.08 0.0
12 06:55 Calm 10.00 Mostly Cloudy BKN015 BKN024 73.6 68 76.5 72.9 83% 30.07 0.0
12 06:35 Calm 10.00 Overcast BKN013 OVC020 73.4 68.2 84% 30.07 0.0
12 06:15 Calm 10.00 Overcast BKN020 OVC027 73.6 67.6 82% 30.06 0.0
12 05:55 Calm 10.00 Overcast BKN018 OVC024 73.4 66 78% 30.06 0.0
12 05:35 Calm 10.00 Overcast OVC018 73.6 68.4 84% 30.05 0.0
12 05:15 Calm 10.00 Mostly Cloudy BKN020 BKN027 73.4 68.4 84% 30.05 0.0
12 04:55 Calm 10.00 NULL NULL 73.8 68.2 83% 30.05 0.0
12 04:40 Calm 0.00 NULL NULL 73.2 66.6 80% 0 0.0
12 04:15 Calm 10.00 Fair CLR 73 66.9 81% 30.05 0.0
12 03:55 Calm 10.00 Fair CLR 73.2 68.2 84% 30.06 0.0
12 03:35 Calm 10.00 Fair CLR 73.4 68.4 84% 30.06 0.0
12 03:15 Calm 10.00 Fair CLR 74.5 68.9 83% 30.06 0.0
12 02:55 Calm 10.00 Fair CLR 74.3 68.9 83% 30.06 0.0
12 02:35 Calm 10.00 Partly Cloudy SCT013 74.8 68.7 81% 30.06 0.0
12 02:15 Calm 10.00 Fair CLR 75.4 67.6 77% 76 30.06 0.0
12 01:55 Calm 10.00 Mostly Cloudy BKN018 76.1 67.1 74% 78 30.07 0.0
12 01:35 S 3 10.00 Overcast OVC016 76.3 66.2 71% 78 30.07 0.0
12 01:15 S 3 10.00 Overcast OVC016 75.7 66.4 73% 77 30.07 0.0
12 00:55 Calm 10.00 Mostly Cloudy BKN016 75.2 66.4 90 75.2 74% 76 30.08 0.0
12 00:35 Calm 10.00 Mostly Cloudy BKN016 76.5 64.4 66% 78 30.07 0.0
12 00:15 Calm 7.00 Mostly Cloudy BKN016 76.3 64.4 67% 78 30.07 0.0
11 23:55 Calm 7.00 Partly Cloudy SCT014 76.5 64.4 66% 78 30.07 0.0
11 23:35 Calm 7.00 Fair CLR 77 64.6 66% 79 30.07 0.0
11 23:15 Calm 7.00 Fair CLR 77 64.6 66% 79 30.06 0.0
11 22:55 Calm 7.00 Fair CLR 77.9 64.4 63% 80 30.06 0.0
11 22:35 S 3 7.00 Fair CLR 78.1 63.9 62% 80 30.05 0.0
11 22:15 S 6 10.00 Fair CLR 78.6 63 59% 80 30.05 0.0
11 21:55 S 8 10.00 Fair CLR 79.3 63 57% 81 30.05 0.0
11 21:35 S 10 G 16 7.00 Fair CLR 80.1 64.8 60% 82 30.05 0.0
11 21:15 S 9 7.00 Fair CLR 81 63.7 56% 82 30.04 0.0
11 20:55 S 8 7.00 Fair CLR 82.2 61.9 50% 83 30.04 0.0
11 20:35 S 10 7.00 Fair CLR 82.9 62.2 50% 84 30.04 0.0
11 20:15 SE 12 G 16 7.00 Fair CLR 83.8 62.6 49% 85 30.03 0.0
11 19:55 S 12 G 16 7.00 Fair CLR 85.1 61.7 45% 86 30.02 0.0
11 19:35 S 14 G 20 5.00 Fair with Haze CLR 87.3 59.4 39% 87 30.02 0.0
11 19:15 SE 12 7.00 Fair CLR 88.2 57.2 35% 87 30.02 0.0
11 18:55 SE 10 7.00 Fair CLR 90 57.2 92.8 84.7 33% 89 30.01 0.0
11 18:35 SE 12 G 20 10.00 Fair CLR 90.3 57.7 33% 89 30 0.0
11 18:15 SE 14 G 18 7.00 Fair CLR 90.7 59 35% 90 29.99 0.0
11 17:55 SE 9 7.00 Fair CLR 92.1 56.3 30% 90 29.99 0.0
11 17:35 SE 12 G 18 10.00 Fair CLR 91.6 56.1 30% 90 29.99 0.0
11 17:15 E 13 10.00 Fair CLR 92.1 56.1 30% 90 30.01 0.0
11 16:55 E 13 G 18 10.00 Fair CLR 91.4 56.8 31% 90 30.01 0.0
11 16:35 E 10 10.00 Fair CLR 91.2 57.9 33% 90 30.01 0.0
11 16:15 SE 7 G 16 10.00 Fair CLR 90.9 57.9 33% 90 30.01 0.0
11 15:55 SE 8 10.00 Fair CLR 90.7 57.7 33% 89 30.02 0.0
11 15:35 SE 7 7.00 Fair CLR 90 58.8 35% 89 30.02 0.0
11 15:15 E 7 7.00 Fair CLR 88.9 57.9 35% 88 30.03 0.0
11 14:55 E 6 7.00 Fair CLR 88.5 59.5 38% 88 30.03 0.0
11 14:35 SE 8 10.00 Fair CLR 86.7 60.3 41% 87 30.04 0.0
11 14:15 SE 8 7.00 Fair CLR 86.2 60.6 42% 86 30.05 0.0
11 13:55 SE 6 10.00 Fair CLR 85.3 61.2 44% 86 30.05 0.0
11 13:35 S 5 7.00 Fair CLR 84.7 61.9 46% 85 30.06 0.0
11 13:15 S 6 7.00 Fair CLR 85.1 62.1 46% 86 30.07 0.0
11 12:55 S 5 10.00 Fair CLR 85.1 61.9 85.1 70.5 46% 86 30.08 0.0
11 12:35 S 5 7.00 Fair CLR 84.7 61 45% 85 30.08 0.0
11 12:15 S 5 7.00 Fair CLR 84.2 61 46% 84 30.08 0.0
11 11:55 S 6 7.00 Fair CLR 84.7 60.8 45% 85 30.08 0.0
11 11:35 S 6 10.00 Fair CLR 83.8 61.5 47% 84 30.08 0.0
11 11:15 SE 6 7.00 Fair CLR 84.4 60.3 44% 84 30.09 0.0
11 10:55 SE 8 7.00 Fair CLR 84.2 61.5 47% 85 30.08 0.0
11 10:35 S 5 7.00 Fair CLR 83.5 63 50% 84 30.08 0.0
11 10:15 SE 3 5.00 Fair with Haze CLR 83.3 62.8 50% 84 30.08 0.0
11 09:55 Calm 10.00 Fair CLR 82.2 61.3 49% 83 30.08 0.0
11 09:35 Calm 10.00 Fair CLR 81.1 61.9 52% 82 30.08 0.0
11 09:15 Calm 10.00 Fair CLR 80.1 60.4 51% 81 30.08 0.0
11 08:55 Calm 10.00 Fair CLR 77.7 62.4 59% 79 30.08 0.0
11 08:35 N 5 10.00 Fair CLR 75.2 63 66% 77 30.08 0.0
11 08:15 NW 6 10.00 Partly Cloudy SCT110 74.1 63.7 70% 30.07 0.0
11 07:55 NW 5 10.00 Mostly Cloudy BKN100 73 64.4 74% 30.07 0.0
11 07:35 NW 6 10.00 Mostly Cloudy BKN100 72.1 65.3 79% 30.06 0.0
11 07:15 NW 5 10.00 Partly Cloudy SCT100 70.9 65.3 83% 30.05 0.0
11 06:35 NW 3 10.00 Fair CLR 69.8 64.8 84% 30.05 0.0
11 06:15 Calm 10.00 Partly Cloudy SCT095 69.8 64.8 84% 30.05 0.0
11 05:55 NW 3 10.00 Partly Cloudy SCT095 69.8 64.8 84% 30.04 0.0
11 05:35 NW 3 10.00 Mostly Cloudy BKN095 69.8 64.9 85% 30.03 0.0
11 05:15 NW 3 10.00 Fair CLR 69.8 64.8 84% 30.03 0.0
11 04:55 NW 5 10.00 Fair CLR 69.1 63.9 84% 30.03 0.0
11 04:35 W 5 10.00 Fair CLR 69.3 63.9 83% 30.03 0.0
11 04:15 Calm 10.00 Fair CLR 70.2 63.5 80% 30.04 0.0
11 03:55 Calm 10.00 Fair CLR 70.3 63.3 79% 30.04 0.0
11 03:35 Calm 10.00 Fair CLR 71.1 63 76% 30.05 0.0
11 03:15 Calm 10.00 Fair CLR 71.2 63 75% 30.05 0.0
11 02:55 Calm 10.00 Fair CLR 71.1 62.8 75% 30.05 0.0
11 02:35 NW 3 10.00 Fair CLR 71.1 62.4 74% 30.05 0.0
11 02:15 NW 6 10.00 Fair CLR 71.6 61.7 71% 30.05 0.0
11 01:55 NW 5 10.00 Fair CLR 72 61.7 70% 30.05 0.0
11 01:35 NW 6 10.00 Fair CLR 72 61.7 70% 30.06 0.0
11 01:15 N 5 10.00 Fair CLR 72 61.9 71% 30.06 0.0
11 00:55 NW 5 10.00 Fair CLR 71.8 61.7 77.7 71.8 71% 30.06 0.0
11 00:35 NW 5 10.00 Fair CLR 72.1 61.7 70% 30.06 0.0
11 00:15 NW 5 10.00 Fair CLR 72.5 62.6 71% 30.05 0.0
10 23:55 NW 6 10.00 Fair CLR 72.5 62.2 70% 30.05 0.0
10 23:35 N 3 10.00 Fair CLR 72.7 61.7 69% 30.05 0.0
10 23:15 Calm 10.00 Fair CLR 73.9 61.7 66% 30.05 0.0
10 22:55 Calm 10.00 Fair CLR 73.9 61.9 66% 30.05 0.0
10 22:35 Calm 10.00 Fair CLR 74.1 61.7 65% 30.04 0.0
10 22:15 Calm 10.00 Fair CLR 74.3 62.2 66% 30.04 0.0
10 21:55 Calm 10.00 Fair CLR 74.7 62.4 66% 30.04 0.0
10 21:35 Calm 10.00 Fair CLR 74.7 63.3 68% 30.03 0.0
10 21:15 Calm 10.00 Fair CLR 74.8 63.3 67% 30.03 0.0
10 20:55 S 3 10.00 Fair CLR 75 63.1 67% 77 30.03 0.0
10 20:35 S 5 10.00 Fair CLR 75 62.1 64% 77 30.04 0.0
10 20:15 S 6 10.00 Fair CLR 75.4 60.8 61% 78 30.05 0.0
10 19:55 S 8 10.00 Fair CLR 76.1 61.2 60% 78 30.05 0.0
10 19:35 S 13 10.00 Partly Cloudy SCT120 75.2 61.3 62% 77 30.05 0.0
10 19:15 S 18 G 23 7.00 Mostly Cloudy BKN110 75.6 62.4 64% 78 30.05 0.0
10 18:55 SE 10 G 17 10.00 Overcast SCT050 SCT080 OVC100 78.3 59.4 93.2 78.3 52% 80 30.03 0.0
10 18:35 E 8 7.00 Mostly Cloudy SCT050 SCT070 BKN100 81.1 60.6 50% 82 30.01 0.0
10 18:15 E 10 10.00 Mostly Cloudy SCT070 BKN090 82 61.5 50% 83 30.02 0.0
10 17:55 E 15 G 21 10.00 Mostly Cloudy SCT070 BKN080 86.9 59 39% 86 30.02 0.0
10 17:35 SE 8 7.00 Fair CLR 90.1 61.2 38% 90 30 0.0
10 17:15 S 12 7.00 Light Rain CLR 89.8 60.3 37% 89 29.99 0.0
10 16:55 S 9 10.00 Fair CLR 87.8 59.7 39% 87 29.99 0.0
10 16:35 S 10 10.00 Fair CLR 86 62.8 46% 87 30 0.0
10 16:15 S 14 10.00 Fair CLR 86.2 62.6 45% 87 29.99 0.0
10 15:55 S 13 10.00 Fair CLR 88.5 61.2 40% 89 29.99 0.0
10 15:35 S 12 10.00 Fair CLR 92.1 60.6 35% 92 29.99 0.0
10 15:15 S 10 7.00 Partly Cloudy SCT049 91.9 60.6 35% 92 30 0.0
10 14:55 SE 10 10.00 Partly Cloudy SCT049 91.4 57.4 32% 90 30 0.0
10 14:35 E 5 7.00 Partly Cloudy SCT047 91.9 59.2 33% 91 30.01 0.0
10 14:15 SE 5 7.00 Fair CLR 90.9 57.2 32% 89 30.02 0.0
10 13:55 E 6 7.00 Fair CLR 90.7 62.1 38% 91 30.02 0.0
10 13:35 E 8 10.00 Fair CLR 88.7 61.5 40% 89 30.03 0.0
10 13:15 E 8 7.00 Fair CLR 90.1 62.8 40% 91 30.04 0.0
10 12:55 SE 7 7.00 Fair CLR 88.9 62.4 89.1 75.4 41% 89 30.05 0.0 0.01
10 12:35 Calm 10.00 Fair CLR 88.9 66.4 47% 92 30.06 0.0
10 12:15 Calm 7.00 Partly Cloudy SCT110 85.8 68.2 56% 89 30.07 0.0
10 11:55 Calm 10.00 Mostly Cloudy BKN110 84 69.6 62% 88 30.07 0.0
10 11:35 Calm 10.00 Mostly Cloudy BKN110 82.4 70.5 67% 87 30.07 0.0
10 11:15 Calm 10.00 Mostly Cloudy BKN110 80.8 70.2 70% 84 30.07 0.0
10 10:55 NE 3 10.00 Mostly Cloudy SCT090 BKN100 80.1 70.2 72% 83 30.07 0.0
10 10:35 Calm 10.00 Overcast BKN090 OVC100 79.3 69.4 72% 82 30.07 0.0
10 10:15 Calm 10.00 Overcast OVC100 78.3 70.5 77% 81 30.07 0.0
10 09:55 Calm 10.00 Overcast OVC100 77.9 71.4 81% 80 30.07 0.0 0.01
10 09:35 Calm 10.00 Overcast OVC100 77 72.9 87% 78 30.07 0.0
10 09:15 Calm 10.00 Overcast OVC100 76.3 73.8 92% 76 30.06 0.0
10 08:55 NW 3 10.00 Overcast OVC090 76.1 74.3 94% 76 30.05 0.0 0.01
10 08:35 NW 3 10.00 Mostly Cloudy SCT033 BKN090 BKN110 76.1 73.8 93% 76 30.05 0.0 0.01
10 08:15 Calm 10.00 Light Rain SCT024 SCT036 BKN095 76.1 72.7 89% 76 30.05 0.0
10 07:55 Calm 10.00 Light Rain OVC080 75.6 72.3 90% 75 30.05 0.0
10 07:35 Calm 10.00 Overcast BKN013 BKN080 OVC090 75.4 73.4 94% 74 30.04 0.0
10 07:15 Calm 10.00 Overcast OVC013 75.7 73.9 94% 75 30.04 0.0
10 06:55 Calm 10.00 Overcast BKN013 OVC070 75.4 73.6 94% 74 30.03 0.0
10 06:35 NW 3 10.00 Overcast SCT013 OVC070 75.2 72.9 92% 74 30.03 0.0
10 06:15 Calm 10.00 Overcast BKN070 BKN080 OVC100 75.2 72.3 91% 74 30.02 0.0
10 05:55 Calm 10.00 Mostly Cloudy BKN075 BKN100 74.8 73.2 95% 30.02 0.0
10 05:35 Calm 10.00 Partly Cloudy SCT120 75.2 72.9 92% 74 30.02 0.0
10 05:15 Calm 10.00 Mostly Cloudy BKN120 75.2 73 93% 74 30.02 0.0
10 04:55 Calm 10.00 Mostly Cloudy BKN120 75.2 73.2 94% 74 30.02 0.0
10 04:35 N 3 10.00 Partly Cloudy SCT075 SCT095 75.6 73.2 92% 75 30.02 0.0
10 04:15 W 3 10.00 Light Drizzle SCT044 SCT060 BKN110 76.3 72.5 88% 77 30.02 0.0
10 03:55 Calm 7.00 Light Rain SCT038 BKN070 OVC120 76.1 70.3 82% 77 30.02 0.0
10 03:35 Calm 10.00 Rain SCT020 BKN085 OVC110 77.4 67.8 73% 79 30.02 0.0
10 03:15 Calm 10.00 Overcast SCT016 BKN085 OVC110 77.5 66.7 69% 79 30.03 0.0
10 02:55 Calm 10.00 Mostly Cloudy SCT060 BKN075 BKN085 77.5 66.4 69% 79 30.03 0.0
10 02:35 Calm 10.00 Partly Cloudy SCT075 77.9 66.2 67% 80 30.03 0.0
10 02:15 Calm 10.00 NULL NULL 77.4 66.2 69% 79 30.04 0.0
10 01:15 E 3 10.00 Overcast OVC110 78.6 65.7 65% 81 30.03 0.0
10 00:55 E 5 10.00 Mostly Cloudy BKN110 78.6 64.8 85.3 78.3 63% 80 30.03 0.0
10 00:35 Calm 10.00 Fair CLR 78.8 65.1 63% 81 30.02 0.0
10 00:15 Calm 10.00 Fair CLR 79.2 65.7 63% 81 30.02 0.0
09 23:55 Calm 10.00 Fair CLR 79.3 65.5 63% 81 30.01 0.0
09 23:35 Calm 10.00 Fair CLR 79.7 65.7 62% 82 30.01 0.0
09 23:15 Calm 10.00 Fair CLR 79.9 64.4 59% 82 30.02 0.0
09 22:55 Calm 10.00 Fair CLR 80.6 65.3 60% 83 30.01 0.0
09 22:35 S 3 10.00 Fair CLR 80.6 64.4 58% 82 30.01 0.0
09 22:15 SE 6 10.00 Fair CLR 81.3 64.4 57% 83 30.01 0.0
09 21:55 SE 5 10.00 Mostly Cloudy BKN065 81 66.2 61% 83 30 0.0
09 21:35 Calm 10.00 Mostly Cloudy BKN065 81.7 66.2 60% 84 29.99 0.0
09 21:15 Calm 10.00 Fair CLR 81.5 66.4 60% 84 29.98 0.0
09 20:55 Calm 10.00 Fair CLR 81.5 66.9 61% 84 29.98 0.0
09 20:35 NW 7 10.00 Fair CLR 81.5 66.7 61% 84 29.97 0.0
09 20:15 NW 6 10.00 Fair CLR 82 66.2 59% 84 29.95 0.0
09 19:55 NW 6 10.00 Fair CLR 82.6 65.3 56% 84 29.94 0.0
09 19:35 N 5 10.00 Fair CLR 83.1 65.7 56% 85 29.94 0.0
09 19:15 NW 7 10.00 Fair CLR 84.4 64.6 52% 86 29.94 0.0
09 18:55 NW 5 10.00 Fair CLR 85.1 60.8 96.4 79.5 44% 85 29.94 0.0
09 18:35 NW 7 10.00 Fair CLR 85.1 61.2 45% 85 29.94 0.0
Date Time (cdt) Wind (mph) Vis. (mi.) Weather Sky Cond. Air Dwpt Max. Min. Relative Humidity Wind Chill (°F) Heat Index (°F) altimeter (in) sea level (mb) 1 hr 3 hr 6 hr
6 hour
Temperature (ºF) Pressure Precipitation (in)